Location: Baix
(44.7118°N, 4.7648°E)
Time: 15:35:34
(UTC+00:00)

Explorer 11/Cluster Stage 4 - Pass Details

Date: 05 December 2020
Orbit: 467 x 1258 km, 28.8° (Epoch: 14 January)

Event Time Altitude Azimuth Distance (km) Brightness Sun altitude
Rises 20:02:37 0° 243° (WSW) 4,180 10.9 -42.1°
Reaches altitude 10° 20:06:17 10° 230° (SW) 3,165 10.0 -42.8°
Enters shadow 20:08:35 17° 217° (SW) 2,644 9.4 -43.2°
Maximum altitude 20:12:09 23° 183° (S) 2,219 - -43.8°
Drops below altitude 10° 20:17:28 10° 134° (SE) 2,843 - -44.7°
Sets 20:20:34 0° 120° (ESE) 3,661 - -45.2°
